Weather History for KLNK - April, 2013

Change the Weather History Date:

Sunday, April 7, 2013

  Actual Average Record
Temperature  
Mean Temperature 56 °F 48 °F  
Max Temperature 74 °F 61 °F 84 °F (1991)
Min Temperature 37 °F 35 °F 16 °F (1936)
Degree Days  
Heating Degree Days 9 17  
Month to date heating degree days 132 125  
Since 1 July heating degree days 5689 5601  
Cooling Degree Days 0 0  
Month to date cooling degree days 0 0  
Year to date cooling degree days 0 1  
Growing Degree Days 5 (Base 50)    
Moisture  
Dew Point 41 °F    
Average Humidity 61    
Maximum Humidity 93    
Minimum Humidity 29    
Precipitation  
Precipitation 0.50 in 0.07 in 0.98 in (1896)
Month to date precipitation 0.50 0.51  
Year to date precipitation 3.89 3.85  
Snow  
Snow 0.00 in 0.10 in - ()
Month to date snowfall T 0.6  
Since 1 July snowfall 24.2 25.1  
Snow Depth 0.00 in    
Sea Level Pressure  
Sea Level Pressure 29.74 in    
Wind  
Wind Speed 6 mph (East)    
Max Wind Speed 23 mph    
Max Gust Speed 28 mph    
Visibility 9 miles    
Events Rain    
T = Trace of Precipitation, MM = Missing Value Source: NWS Daily Summary

Daily Weather History Graph

Daily Weather History Graph

Search for Another Location

Airport or City:

Trip Planner

Search our weather history database for the weather conditions in past years. The results will help you decide how hot, cold, wet, or windy it might be!

Date:

Astronomy

Apr. 07, 2013 Rise Set
Actual Time 7:00 AM CDT 7:58 PM CDT
Civil Twilight 6:32 AM CDT 8:26 PM CDT
Nautical Twilight 5:59 AM CDT 8:59 PM CDT
Astronomical Twilight 5:24 AM CDT 9:34 PM CDT
Moon 5:19 AM CDT (4/7) 5:31 PM CDT (4/7)
Length of Visible Light 13h 54m
Length of Day
12h 58m
Waning Crescent, 8% of the Moon is Illuminated
Apr 7
Waning Crescent
Apr 10
New
Apr 18
First Quarter
Apr 25
Full
May 2
Last Quarter

Hourly Weather History & Observations

Time (CDT) Temp. Windchill Dew Point Humidity Pressure Visibility Wind Dir Wind Speed Gust Speed Precip Events Conditions
12:54 AM 43.0 °F 38.8 °F 37.0 °F 80% 29.82 in 10.0 mi North 6.9 mph - N/A   Clear
1:54 AM 43.0 °F - 36.0 °F 76% 29.82 in 10.0 mi Calm Calm - N/A   Clear
2:54 AM 41.0 °F 38.0 °F 36.0 °F 82% 29.82 in 10.0 mi North 4.6 mph - N/A   Scattered Clouds
3:54 AM 43.0 °F - 37.0 °F 80% 29.81 in 10.0 mi Calm Calm - N/A   Scattered Clouds
4:54 AM 37.0 °F 34.5 °F 33.1 °F 86% 29.82 in 10.0 mi NNE 3.5 mph - N/A   Scattered Clouds
5:54 AM 42.1 °F - 37.0 °F 82% 29.81 in 10.0 mi Calm Calm - N/A   Mostly Cloudy
6:54 AM 44.1 °F - 37.9 °F 79% 29.83 in 10.0 mi Calm Calm - N/A   Overcast
7:54 AM 45.0 °F 43.5 °F 39.9 °F 82% 29.84 in 10.0 mi North 3.5 mph - N/A   Mostly Cloudy
8:54 AM 48.9 °F - 39.9 °F 71% 29.84 in 10.0 mi Calm Calm - N/A   Partly Cloudy
9:54 AM 53.1 °F - 39.9 °F 61% 29.83 in 10.0 mi ESE 3.5 mph - N/A   Mostly Cloudy
10:54 AM 55.9 °F - 42.1 °F 60% 29.82 in 9.0 mi Calm Calm - N/A   Mostly Cloudy
11:54 AM 64.0 °F - 42.1 °F 45% 29.81 in 10.0 mi SSE 11.5 mph - N/A   Mostly Cloudy
12:54 PM 66.0 °F - 43.0 °F 43% 29.78 in 10.0 mi SE 10.4 mph - N/A   Overcast
1:54 PM 72.0 °F - 43.0 °F 35% 29.74 in 10.0 mi SE 6.9 mph - N/A   Partly Cloudy
2:54 PM 73.0 °F - 39.0 °F 29% 29.72 in 10.0 mi South 9.2 mph - N/A   Clear
3:54 PM 70.0 °F - 37.0 °F 30% 29.71 in 10.0 mi South 18.4 mph 25.3 mph N/A   Overcast
4:54 PM 70.0 °F - 39.0 °F 32% 29.68 in 10.0 mi SSE 5.8 mph - 0.00 in   Overcast
5:54 PM 72.0 °F - 37.9 °F 29% 29.65 in 10.0 mi SE 10.4 mph - N/A   Clear
6:54 PM 69.1 °F - 37.0 °F 31% 29.63 in 10.0 mi SE 9.2 mph - N/A   Clear
7:54 PM 66.0 °F - 37.9 °F 36% 29.62 in 10.0 mi ESE 6.9 mph - N/A   Clear
8:54 PM 64.9 °F - 39.0 °F 39% 29.63 in 10.0 mi Calm Calm - N/A   Overcast
9:20 PM 60.8 °F - 44.6 °F 55% 29.66 in 10.0 mi NNW 15.0 mph - N/A   Overcast
9:54 PM 54.0 °F - 51.1 °F 90% 29.73 in 2.5 mi NW 12.7 mph 26.5 mph 0.10 in Rain Heavy Rain
10:04 PM 53.6 °F - 51.8 °F 94% 29.74 in 3.0 mi West 6.9 mph - 0.04 in Rain Rain
10:54 PM 53.1 °F - 52.0 °F 96% 29.68 in 3.0 mi East 9.2 mph - 0.33 in Rain Heavy Rain
11:15 PM 53.6 °F - 51.8 °F 94% 29.63 in 10.0 mi East 12.7 mph - 0.07 in Rain Light Rain
11:54 PM 54.0 °F - 48.9 °F 83% 29.65 in 10.0 mi NNW 6.9 mph 18.4 mph 0.07 in   Scattered Clouds